Dalaman, Turkey

11:22 PM +03 on April 23, 2017 (GMT +0300)
Dalaman

Weather History for LTBS - October, 2012

Change the Weather History Date:

Friday, October 19, 2012

  Actual Average Record
Temperature  
Mean Temperature 76 °F -  
Max Temperature 92 °F 75 °F 92 °F (2012)
Min Temperature 59 °F 55 °F 48 °F (2005)
Cooling Degree Days 10    
Growing Degree Days 26 (Base 50)    
Moisture  
Dew Point 58 °F    
Average Humidity 60    
Maximum Humidity 83    
Minimum Humidity 17    
Precipitation  
Precipitation 0.00 in - - ()
Sea Level Pressure  
Sea Level Pressure 29.94 in    
Wind  
Wind Speed 6 mph ()    
Max Wind Speed 15 mph    
Max Gust Speed -    
Visibility 6.2 miles    
Events      
Averages and records for this station are not official NWS values.
T = Trace of Precipitation, MM = Missing Value Source: Averaged Metar Reports

Daily Weather History Graph

Daily Weather History Graph

Search for Another Location

Airport or City:

Trip Planner

Search our weather history database for the weather conditions in past years. The results will help you decide how hot, cold, wet, or windy it might be!

Date:

Astronomy

Oct. 19, 2012 Rise Set
Actual Time 7:16 AM EEST 6:22 PM EEST
Civil Twilight 6:49 AM EEST 6:49 PM EEST
Nautical Twilight 6:19 AM EEST 7:19 PM EEST
Astronomical Twilight 5:49 AM EEST 7:49 PM EEST
Moon 11:34 AM EEST (10/19) 9:45 PM EEST (10/19)
Length of Visible Light 11h 59m
Length of Day
11h 06m
Waxing Crescent, 20% of the Moon is Illuminated
Oct 19
Waxing Crescent
Oct 22
First Quarter
Oct 29
Full
Nov 7
Last Quarter
Nov 14
New

Hourly Weather History & Observations

Time (EEST) Temp. Heat Index Dew Point Humidity Pressure Visibility Wind Dir Wind Speed Gust Speed Precip Events Conditions
12:20 AM 66.2 °F - 55.4 °F 68% 29.95 in - ENE 5.8 mph - N/A   Clear
12:50 AM 62.6 °F - 55.4 °F 77% 29.95 in - East 4.6 mph - N/A   Clear
1:20 AM 62.6 °F - 55.4 °F 77% 29.95 in - NNE 4.6 mph - N/A   Clear
1:50 AM 60.8 °F - 53.6 °F 77% 29.95 in - NE 4.6 mph - N/A   Clear
2:20 AM 62.6 °F - 53.6 °F 72% 29.95 in - ENE 4.6 mph - N/A   Clear
2:50 AM 60.8 °F - 53.6 °F 77% 29.95 in - ENE 5.8 mph - N/A   Clear
3:20 AM 62.6 °F - 53.6 °F 72% 29.95 in - ENE 4.6 mph - N/A   Clear
3:50 AM 59.0 °F - 51.8 °F 77% 29.95 in - East 4.6 mph - N/A   Clear
4:20 AM 64.4 °F - 51.8 °F 64% 29.95 in - East 4.6 mph - N/A   Clear
4:50 AM 62.6 °F - 53.6 °F 72% 29.95 in - ENE 4.6 mph - N/A   Clear
5:20 AM 62.6 °F - 51.8 °F 68% 29.95 in - ENE 4.6 mph - N/A   Clear
5:50 AM 62.6 °F - 50.0 °F 63% 29.95 in - NNE 6.9 mph - N/A   Clear
6:20 AM 64.4 °F - 51.8 °F 64% 29.95 in - East 6.9 mph - N/A   Clear
6:50 AM 62.6 °F - 50.0 °F 63% 29.95 in - East 5.8 mph - N/A   Clear
7:20 AM 62.6 °F - 50.0 °F 63% 29.95 in - ENE 8.1 mph - N/A   Clear
7:50 AM 64.4 °F - 53.6 °F 68% 29.95 in - NE 5.8 mph - N/A   Clear
8:20 AM 68.0 °F - 51.8 °F 56% 29.98 in - ENE 6.9 mph - N/A   Clear
8:50 AM 75.2 °F - 50.0 °F 41% 29.98 in - ENE 5.8 mph - N/A   Clear
9:00 AM 74 °F - 50 °F 32% 29.99 in 6 mi ENE 5.8 mph - -  
9:20 AM 78.8 °F - 51.8 °F 39% 29.98 in - ENE 6.9 mph - N/A   Clear
9:50 AM 82.4 °F - 50.0 °F 32% 29.98 in - East 4.6 mph - N/A   Clear
10:20 AM 86.0 °F - 51.8 °F 31% 29.98 in - ENE 3.5 mph - N/A   Clear
10:50 AM 89.6 °F - 46.4 °F 22% 29.98 in - North 6.9 mph - N/A   Clear
11:20 AM 89.6 °F - 46.4 °F 22% 29.95 in - North 6.9 mph - N/A   Clear
11:50 AM 91.4 °F - 44.6 °F 20% 29.95 in 6.2 mi North 4.6 mph - N/A   Partly Cloudy
12:20 PM 91.4 °F - 41.0 °F 17% 29.95 in 6.2 mi Variable 4.6 mph - N/A   Partly Cloudy
12:50 PM 89.6 °F - 48.2 °F 24% 29.95 in 6.2 mi SSW 12.7 mph - N/A   Partly Cloudy
1:20 PM 86.0 °F 89.4 °F 68.0 °F 55% 29.92 in 6.2 mi SW 15.0 mph - N/A   Partly Cloudy
1:50 PM 86.0 °F 87.3 °F 64.4 °F 48% 29.92 in 6.2 mi SW 13.8 mph - N/A   Partly Cloudy
2:20 PM 84.2 °F 86.6 °F 66.2 °F 55% 29.92 in 6.2 mi South 12.7 mph - N/A   Partly Cloudy
2:50 PM 84.2 °F 86.6 °F 66.2 °F 55% 29.92 in 6.2 mi SSW 13.8 mph - N/A   Partly Cloudy
3:00 PM 84 °F - 66 °F 46% 29.93 in 6 mi SSW 13.8 mph - -   Scattered Clouds
3:20 PM 84.2 °F 88.4 °F 69.8 °F 62% 29.89 in 6.2 mi South 15.0 mph - N/A   Partly Cloudy
3:50 PM 82.4 °F 87.2 °F 71.6 °F 70% 29.89 in 6.2 mi South 15.0 mph - N/A   Partly Cloudy
4:20 PM 82.4 °F 86.3 °F 69.8 °F 66% 29.89 in 6.2 mi SSW 15.0 mph - N/A   Partly Cloudy
4:50 PM 84.2 °F 86.6 °F 66.2 °F 55% 29.89 in 6.2 mi SW 15.0 mph - N/A   Partly Cloudy
5:20 PM 82.4 °F 86.3 °F 69.8 °F 66% 29.89 in 6.2 mi SSW 13.8 mph - N/A   Partly Cloudy
5:50 PM 80.6 °F 83.2 °F 68.0 °F 65% 29.89 in 6.2 mi South 10.4 mph - N/A   Partly Cloudy
6:20 PM 78.8 °F - 68.0 °F 69% 29.89 in - South 9.2 mph - N/A   Clear
6:50 PM 78.8 °F - 66.2 °F 65% 29.89 in - SE 5.8 mph - N/A   Clear
7:20 PM 78.8 °F - 64.4 °F 61% 29.89 in - Variable 2.3 mph - N/A   Clear
7:50 PM 73.4 °F - 64.4 °F 73% 29.92 in - NE 4.6 mph - N/A   Clear
8:20 PM 71.6 °F - 64.4 °F 78% 29.92 in - NE 4.6 mph - N/A   Clear
8:50 PM 71.6 °F - 64.4 °F 78% 29.92 in - NNE 8.1 mph - N/A   Clear
9:00 PM 71 °F - 64 °F 72% 29.93 in 6 mi NNE 8.1 mph - -  
9:20 PM 71.6 °F - 62.6 °F 73% 29.92 in - NE 3.5 mph - N/A   Clear
9:50 PM 71.6 °F - 62.6 °F 73% 29.92 in - NNE 4.6 mph - N/A   Clear
10:20 PM 68.0 °F - 62.6 °F 83% 29.92 in - NNE 5.8 mph - N/A   Clear
10:50 PM 69.8 °F - 60.8 °F 73% 29.92 in - NE 6.9 mph - N/A   Clear
11:20 PM 69.8 °F - 59.0 °F 68% 29.92 in - NE 4.6 mph - N/A   Clear
11:50 PM 66.2 °F - 57.2 °F 73% 29.92 in - NNE 6.9 mph - N/A   Clear